Change the Weather History Date:

Friday, August 23, 2013

  Actual Average Record
Temperature  
Mean Temperature 37 °F -  
Max Temperature 36 °F 39 °F 51 °F (2007)
Min Temperature 35 °F 33 °F 28 °F (1996)
Degree Days  
Heating Degree Days 28    
Moisture  
Dew Point 35 °F    
Average Humidity 93    
Maximum Humidity 100    
Minimum Humidity 83    
Precipitation  
Precipitation 0.01 in - - ()
Sea Level Pressure  
Sea Level Pressure 29.85 in    
Wind  
Wind Speed 4 mph (ENE)    
Max Wind Speed 17 mph    
Max Gust Speed -    
Visibility 7 miles    
Events Rain    
Averages and records for this station are not official NWS values.
T = Trace of Precipitation, MM = Missing Value Source: NWS Daily Summary

Daily Weather History Graph

Daily Weather History Graph

Search for Another Location

Airport or City:

Trip Planner

Search our weather history database for the weather conditions in past years. The results will help you decide how hot, cold, wet, or windy it might be!

Date:

Astronomy

Aug. 23, 2013 Rise Set
Actual Time 5:10 AM AKDT 9:59 PM AKDT
Civil Twilight 3:36 AM AKDT 11:30 PM AKDT
Nautical Twilight Sun does not rise Sun does not rise
Astronomical Twilight Sun does not rise Sun does not rise
Moon 8:47 PM AKDT (8/23) 10:39 AM AKDT (8/23)
Length of Visible Light 19h 53m
Length of Day
16h 48m
Waning Gibbous, 90% of the Moon is Illuminated
Aug 23
Waning Gibbous
Aug 28
Last Quarter
Sep 5
New
Sep 12
First Quarter
Sep 19
Full

Hourly Weather History & Observations

Time (AKDT) Temp. Windchill Dew Point Humidity Pressure Visibility Wind Dir Wind Speed Gust Speed Precip Events Conditions
12:01 AM 37.0 °F - 35.1 °F 93% 29.75 in 10.0 mi Calm Calm - N/A   Overcast
12:47 AM 37.4 °F - 35.6 °F 93% 29.76 in 10.0 mi Calm Calm - N/A   Overcast
1:01 AM 37.0 °F - 35.1 °F 93% 29.76 in 10.0 mi Calm Calm - N/A   Overcast
1:11 AM 37.4 °F - 35.6 °F 93% 29.76 in 10.0 mi Calm Calm - N/A   Overcast
1:30 AM 37.4 °F - 35.6 °F 93% 29.77 in 10.0 mi Calm Calm - N/A   Overcast
1:41 AM 37.4 °F - 35.6 °F 93% 29.77 in 10.0 mi Calm Calm - N/A   Overcast
1:56 AM 37.4 °F 33.8 °F 35.6 °F 93% 29.77 in 10.0 mi East 4.6 mph - N/A   Overcast
2:01 AM 37.4 °F 32.1 °F 35.6 °F 93% 29.77 in 10.0 mi East 6.9 mph - N/A   Overcast
3:01 AM 37.0 °F 32.4 °F 35.1 °F 93% 29.77 in 10.0 mi ESE 5.8 mph - N/A   Unknown
3:14 AM 37.4 °F 34.9 °F 35.6 °F 93% 29.77 in 10.0 mi East 3.5 mph - N/A   Overcast
4:01 AM 37.0 °F 34.5 °F 35.1 °F 93% 29.77 in 8.0 mi ESE 3.5 mph - N/A   Overcast
4:52 AM 37.4 °F 33.8 °F 35.6 °F 93% 29.77 in 10.0 mi SE 4.6 mph - N/A   Overcast
5:01 AM 37.4 °F 34.9 °F 35.6 °F 93% 29.78 in 10.0 mi SE 3.5 mph - N/A   Overcast
5:17 AM 37.4 °F 34.9 °F 35.6 °F 93% 29.78 in 10.0 mi ESE 3.5 mph - N/A   Overcast
5:54 AM 37.4 °F - 35.6 °F 93% 29.78 in 2.5 mi Calm Calm - N/A   Mist
6:01 AM 37.4 °F - 35.6 °F 93% 29.78 in 2.5 mi Calm Calm - N/A   Overcast
6:11 AM 37.4 °F - 35.6 °F 93% 29.79 in 2.5 mi Calm Calm - N/A   Overcast
6:24 AM 37.4 °F - 35.6 °F 93% 29.79 in 2.5 mi Calm Calm - N/A   Overcast
6:35 AM 37.4 °F - 35.6 °F 93% 29.79 in 3.0 mi Calm Calm - N/A   Overcast
6:43 AM 37.4 °F - 35.6 °F 93% 29.79 in 2.5 mi Calm Calm - N/A   Overcast
6:50 AM 37.4 °F - 35.6 °F 93% 29.79 in 4.0 mi Calm Calm - N/A   Overcast
7:01 AM 37.0 °F - 36.0 °F 96% 29.79 in 7.0 mi Calm Calm - N/A   Overcast
7:10 AM 37.4 °F - 35.6 °F 93% 29.79 in 9.0 mi Calm Calm - N/A   Overcast
8:01 AM 37.9 °F - 36.0 °F 93% 29.80 in 10.0 mi Calm Calm - N/A   Overcast
8:44 AM 37.4 °F 33.8 °F 35.6 °F 93% 29.81 in 10.0 mi NE 4.6 mph - N/A   Overcast
8:53 AM 37.4 °F 32.8 °F 35.6 °F 93% 29.81 in 10.0 mi East 5.8 mph - N/A   Overcast
9:01 AM 37.9 °F - 36.0 °F 93% 29.81 in 10.0 mi Calm Calm - N/A   Overcast
9:15 AM 37.4 °F - 35.6 °F 93% 29.81 in 10.0 mi Calm Calm - N/A   Overcast
9:22 AM 37.4 °F 34.9 °F 35.6 °F 93% 29.81 in 10.0 mi ENE 3.5 mph - N/A   Overcast
9:49 AM 39.2 °F 37.0 °F 35.6 °F 87% 29.82 in 10.0 mi ENE 3.5 mph - N/A   Overcast
10:01 AM 39.0 °F 36.8 °F 35.1 °F 86% 29.82 in 10.0 mi NNE 3.5 mph - N/A   Overcast
10:17 AM 39.2 °F - 35.6 °F 87% 29.83 in 10.0 mi Calm Calm - N/A   Overcast
11:01 AM 39.9 °F 37.8 °F 35.1 °F 83% 29.84 in 10.0 mi NNW 3.5 mph - N/A   Overcast
12:01 PM 39.0 °F 32.8 °F 35.1 °F 86% 29.85 in 10.0 mi East 9.2 mph - N/A   Unknown
12:22 PM 39.2 °F 35.0 °F 35.6 °F 87% 29.85 in 10.0 mi East 5.8 mph - N/A   Overcast
12:38 PM 37.4 °F 28.9 °F 35.6 °F 93% 29.86 in 10.0 mi East 13.8 mph - 0.00 in Rain Light Rain
12:46 PM 37.4 °F 28.9 °F 35.6 °F 93% 29.86 in 10.0 mi East 13.8 mph - 0.00 in Rain Light Rain
1:01 PM 37.9 °F 29.6 °F 35.1 °F 89% 29.86 in 10.0 mi East 13.8 mph - 0.00 in Rain Light Rain
2:01 PM 37.0 °F 29.8 °F 34.0 °F 89% 29.88 in 10.0 mi ENE 10.4 mph - 0.00 in Rain Light Rain
2:59 PM 37.4 °F 29.8 °F 35.6 °F 93% 29.89 in 10.0 mi ENE 11.5 mph - N/A   Overcast
3:01 PM 37.9 °F 30.5 °F 35.1 °F 89% 29.89 in 10.0 mi ENE 11.5 mph - N/A   Overcast
3:41 PM 37.4 °F 29.3 °F 35.6 °F 93% 29.90 in 5.0 mi NE 12.7 mph - 0.00 in   Overcast
4:01 PM 37.0 °F 29.3 °F 35.1 °F 93% 29.90 in 5.0 mi East 11.5 mph - 0.01 in Rain Light Rain
4:10 PM 37.4 °F 30.3 °F 35.6 °F 93% 29.91 in 4.0 mi East 10.4 mph - 0.00 in Rain Light Rain
5:01 PM 35.6 °F 25.5 °F 35.6 °F 100% 29.91 in 3.0 mi ENE 17.3 mph - N/A Rain Light Rain
5:43 PM 35.6 °F 26.2 °F 35.6 °F 100% 29.92 in 2.5 mi ENE 15.0 mph - N/A   Mist
6:01 PM 35.6 °F 26.6 °F 33.8 °F 93% 29.93 in 2.0 mi ENE 13.8 mph - N/A   Overcast
6:21 PM 35.6 °F 26.6 °F 33.8 °F 93% 29.93 in 1.8 mi ENE 13.8 mph - N/A   Overcast
6:51 PM 35.6 °F 27.1 °F 35.6 °F 100% 29.94 in 2.0 mi ENE 12.7 mph - N/A   Overcast
7:01 PM 35.6 °F 26.6 °F 33.8 °F 93% 29.94 in 1.8 mi NE 13.8 mph - N/A   Overcast
7:26 PM 35.6 °F 27.1 °F 33.8 °F 93% 29.94 in 2.0 mi NE 12.7 mph - N/A   Overcast
7:46 PM 35.6 °F 28.0 °F 33.8 °F 93% 29.94 in 5.0 mi ENE 10.4 mph - N/A   Overcast
8:01 PM 35.6 °F 28.0 °F 33.8 °F 93% 29.95 in 5.0 mi ENE 10.4 mph - N/A   Overcast
8:07 PM 36.0 °F 28.0 °F 34.0 °F 93% 29.94 in 7.0 mi NE 11.5 mph - N/A   Overcast
8:52 PM 35.6 °F 27.5 °F 33.8 °F 93% 29.95 in 10.0 mi NE 11.5 mph - N/A   Overcast
9:01 PM 36.0 °F 28.0 °F 34.0 °F 93% 29.95 in 10.0 mi ENE 11.5 mph - N/A   Overcast
10:01 PM 36.0 °F 27.5 °F 34.0 °F 93% 29.97 in 4.0 mi NE 12.7 mph - 0.00 in   Overcast
10:14 PM 35.6 °F 27.1 °F 33.8 °F 93% 29.97 in 3.0 mi NE 12.7 mph - 0.00 in   Overcast
10:30 PM 35.6 °F 28.0 °F 33.8 °F 93% 29.97 in 5.0 mi ENE 10.4 mph - 0.00 in   Overcast
11:01 PM 36.0 °F 28.0 °F 34.0 °F 93% 29.98 in 6.0 mi NE 11.5 mph - 0.00 in   Overcast
11:11 PM 35.6 °F 27.1 °F 33.8 °F 93% 29.98 in 5.0 mi NE 12.7 mph - 0.00 in   Overcast
11:18 PM 35.6 °F 27.1 °F 33.8 °F 93% 29.98 in 6.0 mi NE 12.7 mph - 0.00 in   Overcast